Location: Orange Harbor Mobile Home Park
(26.6923°N, 81.7937°W)
Time: 07:47:16
(UTC+00:00)

CZ-2C R/B - Pass Details

Date: 19 September 2020
Orbit: 668 x 784 km, 98.2° (Epoch: 29 October)

Event Time Altitude Azimuth Distance (km) Brightness Sun altitude
Rises 09:14:13 0° 13° (NNE) 3,246 6.1 -27.3°
Reaches altitude 10° 09:16:31 10° 14° (NNE) 2,326 5.3 -26.8°
Maximum altitude 09:21:41 84° 101° (E) 790 2.5 -25.7°
Enters shadow 09:23:02 51° 184° (S) 978 2.8 -25.4°
